• Join FlightAware (Why Join?)
  • Login
  • US Flag 
03:54AM EDT


 

Airport Tracker/Info


-or-


 

Live Flight TrackerFlight Track Log ✈ SWA182 ✈ 18-Jun-2013 ✈ KSAT - KLAX

Flight Track Log - Related Links

Times and Time Zones

All times are in EDT time to prevent confusion due to time zone crossing. See the SWA182 flight status page for this flight to view local times or setup timezone preferences in your user account.

Time Position Orientation Groundspeed Altitude Reporting Facility
EDT Latitude Longitude Course Direction KTS MPH feet Rate Location/Type
09:06PM 29.5464 -98.4467 45° Northeast 171 197 1,500  Level Houston Center
09:07PM 29.5958 -98.3903 45° Northeast 230 265 4,000 2,220 Climbing Houston Center
09:08PM 29.6633 -98.4003 353° North 280 322 7,200 2,820 Climbing Houston Center
09:09PM 29.7092 -98.4811 303° West 282 325 10,700 2,820 Climbing Houston Center
09:10PM 29.7589 -98.5706 303° West 337 388 13,100 2,340 Climbing Houston Center
09:11PM 29.8117 -98.6656 303° West 353 406 15,600 2,340 Climbing Houston Center
09:12PM 29.8717 -98.7747 302° West 377 434 18,000 2,460 Climbing Houston Center
09:13PM 29.9381 -98.8756 307° West 393 452 20,700 2,520 Climbing Houston Center
09:14PM 30.0119 -98.9808 309° West 393 452 23,200 2,040 Climbing Houston Center
09:15PM 30.0833 -99.0819 309° West 406 467 25,000 1,500 Climbing Houston Center
09:16PM 30.1303 -99.1850 298° West 428 493 26,300 1,500 Climbing Houston Center
09:18PM 30.1711 -99.3467 286° West 439 505 28,100 1,560 Climbing Houston Center
09:19PM 30.2097 -99.4858 288° West 455 524 29,500 1,560 Climbing Houston Center
09:20PM 30.2483 -99.6258 288° West 459 528 31,400 1,920 Climbing Houston Center
09:21PM 30.2847 -99.7631 287° West 452 520 33,500 1,800 Climbing Houston Center
09:22PM 30.3194 -99.8944 287° West 436 502 35,100 1,500 Climbing Houston Center
09:23PM 30.3542 -100.0258 287° West 432 497 36,600 1,200 Climbing Houston Center
09:24PM 30.3881 -100.1528 287° West 419 482 37,700 660 Climbing Houston Center
09:25PM 30.4283 -100.3094 287° West 432 497 38,000 120 Climbing Houston Center
09:26PM 30.4622 -100.4367 287° West 423 487 38,000  Level Houston Center
09:27PM 30.4950 -100.5706 286° West 427 491 38,000  Level Houston Center
09:28PM 30.5269 -100.7003 286° West 421 484 38,000  Level Houston Center
09:29PM 30.5600 -100.8303 286° West 420 483 38,000  Level Houston Center
09:30PM 30.5947 -100.9606 287° West 431 496 38,000  Level Houston Center
09:31PM 30.6319 -101.1178 285° West 423 487 38,000  Level Houston Center
09:32PM 30.6669 -101.2472 287° West 429 494 38,000  Level Houston Center
09:33PM 30.6992 -101.3786 286° West 428 493 38,000  Level Houston Center
09:34PM 30.7303 -101.5094 285° West 425 489 38,000  Level Houston Center
09:35PM 30.7633 -101.6519 285° West 415 478 38,000  Level Houston Center
09:36PM 30.7964 -101.7822 286° West 417 480 38,000  Level Houston Center
09:37PM 30.8286 -101.9100 286° West 412 474 38,000  Level Houston Center
09:38PM 30.8592 -102.0378 286° West 414 476 38,000  Level Houston Center
09:39PM 30.8922 -102.1722 286° West 422 486 38,000  Level Houston Center
09:40PM 30.9239 -102.3039 286° West 417 480 38,000  Level Houston Center
09:41PM 30.9553 -102.4356 286° West 415 478 38,000  Level Houston Center
09:42PM 30.9811 -102.5408 286° West 421 484 38,000  Level Albuquerque Center
09:43PM 31.0122 -102.6714 286° West 419 482 38,000  Level Albuquerque Center
09:44PM 31.0436 -102.8011 286° West 415 478 38,000  Level Albuquerque Center
09:45PM 31.0736 -102.9297 285° West 412 474 38,000  Level Albuquerque Center
09:46PM 31.1044 -103.0578 286° West 410 472 38,000  Level Albuquerque Center
09:47PM 31.1336 -103.1861 285° West 410 472 38,000  Level Albuquerque Center
09:48PM 31.1636 -103.3158 285° West 414 476 38,000  Level Albuquerque Center
09:49PM 31.2003 -103.4717 285° West 416 479 38,000  Level Albuquerque Center
09:50PM 31.2292 -103.6008 285° West 414 476 38,000  Level Albuquerque Center
09:51PM 31.2581 -103.7314 285° West 417 480 38,000  Level Albuquerque Center
09:52PM 31.2889 -103.8575 286° West 419 482 38,000  Level Albuquerque Center
09:53PM 31.3197 -103.9881 285° West 419 482 38,000  Level Albuquerque Center
09:54PM 31.3486 -104.1194 284° West 420 483 38,000  Level Albuquerque Center
09:55PM 31.3781 -104.2506 285° West 419 482 38,000  Level Albuquerque Center
09:56PM 31.4139 -104.4089 285° West 421 484 38,000  Level Albuquerque Center
09:57PM 31.4433 -104.5408 285° West 422 486 38,000  Level Albuquerque Center
09:58PM 31.4728 -104.6742 285° West 425 489 38,000  Level Albuquerque Center
09:59PM 31.5022 -104.8056 285° West 423 487 38,000  Level Albuquerque Center
10:00PM 31.5317 -104.9378 285° West 424 488 38,000  Level Albuquerque Center
10:01PM 31.5592 -105.0683 284° West 419 482 38,000  Level Albuquerque Center
10:02PM 31.5878 -105.1992 284° West 417 480 38,000  Level Albuquerque Center
10:03PM 31.6219 -105.3583 284° West 424 488 38,000  Level Albuquerque Center
10:04PM 31.6503 -105.4903 284° West 420 483 38,000  Level Albuquerque Center
10:05PM 31.6772 -105.6222 284° West 419 482 38,000  Level Albuquerque Center
10:06PM 31.7053 -105.7542 284° West 419 482 38,000  Level Albuquerque Center
10:07PM 31.7331 -105.8858 284° West 417 480 38,000  Level Albuquerque Center
10:08PM 31.7600 -106.0158 284° West 413 475 38,000  Level Albuquerque Center
10:09PM 31.7878 -106.1453 284° West 410 472 38,000  Level Albuquerque Center
10:11PM 31.8175 -106.2758 285° West 415 478 38,000  Level Albuquerque Center
10:12PM 31.8286 -106.4369 275° West 413 475 38,000  Level Albuquerque Center
10:13PM 31.8375 -106.5714 274° West 411 473 38,000  Level Albuquerque Center
10:14PM 31.8469 -106.6939 275° West 412 474 38,000  Level Albuquerque Center
10:15PM 31.8575 -106.8264 275° West 406 467 38,000  Level Albuquerque Center
10:16PM 31.8669 -106.9600 275° West 409 471 38,000  Level Albuquerque Center
10:17PM 31.8756 -107.0956 274° West 412 474 38,000  Level Albuquerque Center
10:18PM 31.8875 -107.2572 275° West 414 476 38,000  Level Albuquerque Center
10:19PM 31.8956 -107.3922 274° West 412 474 38,000  Level Albuquerque Center
10:20PM 31.9044 -107.5236 275° West 409 471 38,000  Level Albuquerque Center
10:21PM 31.9133 -107.6567 275° West 405 466 38,000  Level Albuquerque Center
10:22PM 31.9236 -107.7881 275° West 403 464 38,000  Level Albuquerque Center
10:23PM 31.9539 -107.9142 286° West 402 463 38,000  Level Albuquerque Center
10:24PM 31.9839 -108.0417 286° West 401 461 38,000  Level Albuquerque Center
10:25PM 32.0178 -108.1842 286° West 399 459 38,000  Level Albuquerque Center
10:26PM 32.0475 -108.3092 286° West 399 459 38,000  Level Albuquerque Center
10:27PM 32.0775 -108.4356 286° West 401 461 38,000  Level Albuquerque Center
10:28PM 32.1067 -108.5614 285° West 401 461 38,000  Level Albuquerque Center
10:29PM 32.1358 -108.6864 285° West 399 459 38,000  Level Albuquerque Center
10:30PM 32.1647 -108.8125 285° West 400 460 38,000  Level Albuquerque Center
10:31PM 32.1931 -108.9367 285° West 396 456 38,000  Level Albuquerque Center
10:32PM 32.2278 -109.0853 285° West 394 453 38,000  Level Albuquerque Center
10:33PM 32.2558 -109.2089 285° West 392 451 38,000  Level Albuquerque Center
10:34PM 32.2903 -109.3311 288° West 393 452 38,000  Level Albuquerque Center
10:35PM 32.3328 -109.4489 293° West 393 452 38,000  Level Albuquerque Center
10:36PM 32.3750 -109.5678 293° West 394 453 38,000  Level Albuquerque Center
10:37PM 32.4153 -109.6867 292° West 392 451 38,000  Level Albuquerque Center
10:38PM 32.4811 -109.7928 306° West 399 459 38,000  Level Albuquerque Center
10:39PM 32.5864 -109.8956 321° Northwest 407 468 38,000  Level Albuquerque Center
10:40PM 32.6733 -109.9792 321° Northwest 406 467 38,000  Level Albuquerque Center
10:41PM 32.7603 -110.0631 321° Northwest 406 467 38,000  Level Albuquerque Center
10:42PM 32.8219 -110.1664 305° West 401 461 38,000  Level Albuquerque Center
10:43PM 32.8519 -110.2889 286° West 390 449 38,000  Level Albuquerque Center
10:44PM 32.8836 -110.4114 287° West 390 449 38,000  Level Albuquerque Center
10:45PM 32.9133 -110.5347 286° West 390 449 38,000  Level Albuquerque Center
10:46PM 32.9486 -110.6808 286° West 387 445 38,000  Level Albuquerque Center
10:47PM 32.9769 -110.7925 287° West 387 445 38,000  Level Albuquerque Center
10:48PM 33.0061 -110.9181 286° West 391 450 38,000  Level Albuquerque Center
10:49PM 33.0450 -111.0361 291° West 385 443 38,000  Level Albuquerque Center
10:50PM 33.0822 -111.1567 290° West 386 444 38,000  Level Albuquerque Center
10:51PM 33.1192 -111.2775 290° West 386 444 38,000  Level Albuquerque Center
10:52PM 33.1639 -111.4219 290° West 386 444 38,000  Level Albuquerque Center
10:53PM 33.2017 -111.5494 290° West 394 453 38,000  Level Albuquerque Center
10:55PM 33.2372 -111.6703 289° West 395 455 38,000  Level Albuquerque Center
10:56PM 33.2758 -111.7956 290° West 398 458 38,000  Level Albuquerque Center
10:57PM 33.3125 -111.9183 290° West 395 455 38,000  Level Albuquerque Center
10:58PM 33.3492 -112.0406 290° West 392 451 38,000  Level Albuquerque Center
10:59PM 33.3847 -112.1628 289° West 390 449 38,000  Level Albuquerque Center
11:00PM 33.4206 -112.2847 289° West 388 447 38,000  Level Albuquerque Center
11:01PM 33.4569 -112.4083 289° West 390 449 38,000  Level Albuquerque Center
11:02PM 33.4928 -112.5297 290° West 387 445 38,000  Level Albuquerque Center
11:03PM 33.5303 -112.6542 290° West 388 447 38,000  Level Albuquerque Center
11:04PM 33.5719 -112.8025 289° West 392 451 38,000  Level Albuquerque Center
11:05PM 33.6086 -112.9269 290° West 394 453 38,000  Level Albuquerque Center
11:06PM 33.6442 -113.0508 289° West 395 455 38,000  Level Albuquerque Center
11:07PM 33.6789 -113.1728 289° West 392 451 38,000  Level Albuquerque Center
11:08PM 33.7133 -113.2947 289° West 389 448 38,000  Level Albuquerque Center
11:09PM 33.7500 -113.4181 290° West 389 448 38,000  Level Albuquerque Center
11:10PM 33.7847 -113.5406 289° West 387 445 38,000  Level Albuquerque Center
11:11PM 33.8192 -113.6628 289° West 387 445 38,000  Level Albuquerque Center
11:12PM 33.8606 -113.8106 289° West 389 448 38,000  Level Albuquerque Center
11:13PM 33.8831 -113.9358 282° West 386 444 38,000  Level Albuquerque Center
11:14PM 33.8986 -114.0628 278° West 385 443 38,000  Level Albuquerque Center
11:15PM 33.9158 -114.1900 279° West 385 443 38,000  Level Albuquerque Center
11:16PM 33.9319 -114.3144 279° West 389 448 38,000  Level Albuquerque Center
11:17PM 33.9492 -114.4397 279° West 384 442 38,000  Level Albuquerque Center
11:18PM 33.9639 -114.5672 278° West 384 442 38,000  Level Albuquerque Center
11:19PM 33.9817 -114.7003 279° West 383 441 38,000  Level Los Angeles Center
11:20PM 34.0014 -114.8506 279° West 382 440 38,000  Level Los Angeles Center
11:21PM 34.0169 -114.9767 278° West 382 440 38,000  Level Los Angeles Center
11:22PM 34.0333 -115.1022 279° West 381 438 38,000  Level Los Angeles Center
11:23PM 34.0478 -115.2294 278° West 383 441 38,000 -300 Level Los Angeles Center
11:24PM 34.0628 -115.3561 278° West 383 441 37,400 -780 Descending Los Angeles Center
11:25PM 34.0783 -115.4822 279° West 383 441 36,500 -960 Descending Los Angeles Center
11:26PM 34.0939 -115.6108 278° West 389 448 35,500 -1,080 Descending Los Angeles Center
11:27PM 34.1103 -115.7628 277° West 383 441 34,300 -780 Descending Los Angeles Center
11:28PM 34.0950 -115.8861 262° West 376 433 34,000 -180 Descending Los Angeles Center
11:29PM 34.0775 -116.0064 260° West 370 426 34,000  Level Los Angeles Center
11:30PM 34.0589 -116.1292 260° West 373 429 34,000 -600 Level Los Angeles Center
11:31PM 34.0400 -116.2528 260° West 376 433 32,800 -1,860 Descending Los Angeles Center
11:32PM 34.0222 -116.3725 260° West 368 423 30,300 -2,520 Descending Los Angeles Center
11:34PM 34.0025 -116.5203 261° West 373 429 27,700 -2,280 Descending Los Angeles Center
11:35PM 33.9933 -116.6403 265° West 363 418 25,600 -2,100 Descending Los Angeles Center
11:36PM 33.9842 -116.7539 264° West 346 398 23,500 -2,040 Descending Los Angeles Center
11:37PM 33.9744 -116.8647 264° West 337 388 21,500 -1,920 Descending Los Angeles Center
11:38PM 33.9650 -116.9750 264° West 332 382 19,600 -1,980 Descending Los Angeles Center
11:39PM 33.9564 -117.0819 264° West 323 372 17,500 -1,320 Descending Los Angeles Center
11:40PM 33.9467 -117.2006 264° West 326 375 17,000 -960 Descending Los Angeles Center
11:41PM 33.9369 -117.3058 264° West 320 368 15,600 -1,620 Descending Los Angeles Center
11:42PM 33.9461 -117.4122 276° West 328 377 13,700 -1,980 Descending Los Angeles Center
11:43PM 33.9833 -117.5167 293° West 316 364 11,800 -1,380 Descending Southern California TRACON
11:44PM 34.0167 -117.6000 296° West 281 323 11,100 -900 Descending Southern California TRACON
11:45PM 34.0000 -117.6833 256° West 247 284 10,000 -1,140 Descending Southern California TRACON
11:46PM 34.0000 -117.7833 270° West 248 285 8,800 -1,200 Descending Southern California TRACON
11:47PM 33.9833 -117.8667 256° West 252 290 7,500 -1,200 Descending Southern California TRACON
11:48PM 33.9833 -117.9333 270° West 227 261 6,500 -900 Descending Southern California TRACON
11:49PM 33.9833 -118.0000 270° West 222 255 5,800 -840 Descending Southern California TRACON
11:50PM 33.9667 -118.0833 256° West 203 234 5,000 -900 Descending Southern California TRACON
11:51PM 33.9667 -118.1500 270° West 202 232 4,000 -1,080 Descending Southern California TRACON
11:52PM 33.9500 -118.2000 248° West 197 227 2,900 -1,080 Descending Southern California TRACON
11:53PM 33.9500 -118.2667 270° West 181 208 1,900 -900 Descending Southern California TRACON
11:54PM 33.9500 -118.3167 270° West 140 161 1,100 -780 Descending Southern California TRACON
11:55PM 33.9333 -118.3667 248° West 134 154 400 -720 Descending Southern California TRACON
11:57PM 33.9333 -118.4000 270° West  Level FlightAware Approximate